KJ4AJP Weather Reports


Display with metric or nautical units.
time (UTC)temp
F
wind
direction
speed
MPH
gust
MPH
rain 1hr
in
rain 24hr
in
rain mn
in
humidity
%
barometer
mb
20200226175126 39 305 5.0 9.0 0.00 0.00 0.00 78 1016.8
20200226174226 39 328 3.0 10.0 0.00 0.00 0.00 79 1016.7
20200226173326 39 315 3.0 8.0 0.00 0.00 0.00 79 1016.9
20200226172426 39 310 3.0 9.0 0.00 0.00 0.00 79 1017.1
20200226171525 39 308 4.0 11.0 0.00 0.00 0.00 79 1017.1
20200226170626 39 318 4.0 9.0 0.00 0.00 0.00 80 1016.8
20200226165726 39 319 2.0 8.0 0.00 0.00 0.00 80 1016.9
20200226164826 39 326 4.0 8.0 0.00 0.00 0.00 80 1016.9
20200226163925 39 317 4.0 15.0 0.00 0.00 0.00 80 1016.8
20200226163026 39 346 3.0 10.0 0.00 0.00 0.00 82 1016.6
20200226162126 39 325 4.0 11.0 0.00 0.00 0.00 82 1016.5
20200226161226 39 320 4.0 9.0 0.00 0.00 0.00 83 1016.5
20200226160326 39 317 3.0 11.0 0.00 0.00 0.00 84 1016.4
20200226155426 39 314 4.0 11.0 0.00 0.00 0.00 84 1016.3
20200226154528 39 325 2.0 10.0 0.00 0.00 0.00 84 1016.4
20200226153626 39 314 2.0 8.0 0.00 0.00 0.00 85 1016.3
20200226152726 39 327 4.0 9.0 0.00 0.00 0.00 86 1016.4
20200226151826 38 323 4.0 10.0 0.00 0.00 0.00 86 1016.3
20200226150926 38 316 4.0 10.0 0.00 0.00 0.00 87 1016.3
20200226150026 38 320 2.0 8.0 0.00 0.00 0.00 87 1016.2
20200226145126 38 314 2.0 7.0 0.00 0.00 0.00 87 1016.3
20200226144226 38 321 1.0 6.0 0.00 0.00 0.00 87 1016.1
20200226143325 38 314 1.0 8.0 0.00 0.00 0.00 88 1016.1
20200226142425 38 336 4.0 8.0 0.00 0.00 0.00 88 1015.9
20200226141525 38 312 2.0 8.0 0.00 0.00 0.00 89 1015.9
20200226140626 38 299 3.0 8.0 0.00 0.00 0.00 90 1015.7
20200226135726 38 304 4.0 8.0 0.00 0.00 0.00 90 1015.5
20200226134826 38 317 1.0 4.0 0.00 0.00 0.00 91 1015.3
20200226133926 38 325 2.0 4.0 0.00 0.00 0.00 90 1015.1
20200226133026 38 323 2.0 5.0 0.00 0.01 0.00 90 1015.4
20200226132125 38 314 3.0 8.0 0.00 0.01 0.00 90 1015.1
20200226131226 38 276 4.0 7.0 0.00 0.01 0.00 90 1014.9
20200226130326 38 282 2.0 7.0 0.00 0.01 0.00 89 1014.8
20200226125426 38 319 2.0 9.0 0.00 0.01 0.00 89 1014.9
20200226124526 38 324 4.0 7.0 0.00 0.01 0.00 89 1014.5
20200226123626 38 317 2.0 6.0 0.00 0.01 0.00 90 1014.6
20200226122726 38 323 2.0 6.0 0.00 0.01 0.00 90 1014.2
20200226121826 38 302 2.0 6.0 0.00 0.01 0.00 90 1014.2
20200226120925 38 324 3.0 6.0 0.00 0.01 0.00 90 1014.1
20200226120026 38 309 2.0 10.0 0.00 0.01 0.00 90 1014.1
20200226115126 38 318 2.0 5.0 0.00 0.01 0.00 91 1013.7
20200226114226 38 320 2.0 7.0 0.00 0.01 0.00 91 1013.5
20200226113325 38 308 2.0 7.0 0.00 0.01 0.00 90 1013.5
20200226112426 38 313 2.0 5.0 0.00 0.01 0.00 90 1013.8
20200226111525 38 340 2.0 4.0 0.00 0.01 0.00 90 1013.5
20200226110626 39 23 2.0 4.0 0.00 0.01 0.00 90 1013.8
20200226105725 39 333 2.0 5.0 0.00 0.01 0.00 90 1013.7
20200226104826 39 321 2.0 4.0 0.00 0.01 0.00 90 1013.6
20200226103925 39 305 2.0 5.0 0.00 0.01 0.00 90 1013.8
20200226103026 39 314 2.0 6.0 0.00 0.01 0.00 90 1013.7
20200226102126 39 313 2.0 6.0 0.00 0.01 0.00 90 1013.5
20200226101226 39 280 2.0 6.0 0.00 0.01 0.00 90 1013.5
20200226100325 39 287 2.0 4.0 0.00 0.01 0.00 90 1013.7
20200226095426 39 309 2.0 5.0 0.00 0.01 0.00 90 1013.7
20200226094526 39 291 1.0 8.0 0.00 0.01 0.00 90 1013.8
20200226093626 39 310 1.0 4.0 0.00 0.01 0.00 90 1013.5
20200226092726 39 302 2.0 6.0 0.00 0.01 0.00 90 1013.5
20200226091826 39 302 1.0 4.0 0.00 0.01 0.00 90 1013.3
20200226090926 39 135 1.0 6.0 0.00 0.01 0.00 90 1013.5
20200226090025 39 336 2.0 6.0 0.00 0.01 0.00 90 1013.4
20200226085126 40 316 1.0 4.0 0.00 0.01 0.00 90 1012.9
20200226084225 40 340 1.0 4.0 0.00 0.01 0.00 90 1013.1
20200226083326 40 321 1.0 3.0 0.00 0.01 0.00 90 1013.1
20200226082425 40 328 1.0 5.0 0.00 0.01 0.00 90 1013.3
20200226081526 40 319 1.0 4.0 0.00 0.01 0.00 90 1013.3
20200226080625 40 311 2.0 4.0 0.00 0.01 0.00 90 1013.2
20200226075726 40 341 0.0 5.0 0.00 0.01 0.00 90 1012.6
20200226074825 40 328 2.0 4.0 0.00 0.01 0.00 90 1012.1
20200226073926 40 318 2.0 4.0 0.00 0.01 0.00 90 1013.4
20200226073026 40 310 0.0 7.0 0.00 0.01 0.00 90 1013.4
20200226072126 40 313 2.0 7.0 0.00 0.01 0.00 90 1013.9
20200226071225 40 316 2.0 5.0 0.00 0.01 0.00 90 1014.2
20200226070326 40 305 2.0 4.0 0.00 0.01 0.00 91 1014.1
20200226065425 40 313 2.0 5.0 0.00 0.01 0.00 91 1013.9
20200226064525 40 308 1.0 3.0 0.00 0.01 0.00 91 1014.0
20200226063625 40 314 2.0 4.0 0.00 0.01 0.00 91 1013.9
20200226062725 40 324 1.0 6.0 0.00 0.01 0.00 91 1013.8
20200226061825 41 319 1.0 6.0 0.00 0.01 0.00 91 1013.8
20200226060927 41 316 3.0 6.0 0.00 0.01 0.00 91 1014.2
20200226060025 41 328 2.0 4.0 0.00 0.01 0.00 91 1013.9
20200226055126 41 330 1.0 4.0 0.00 0.01 0.01 91 1013.5
20200226054225 41 333 2.0 4.0 0.00 0.01 0.01 91 1013.2
20200226053325 41 317 2.0 4.0 0.00 0.01 0.01 92 1013.2
20200226052425 41 308 2.0 3.0 0.00 0.01 0.01 91 1013.6
20200226051525 41 322 1.0 2.0 0.00 0.01 0.01 91 1013.4
20200226050625 41 316 1.0 2.0 0.00 0.01 0.01 91 1013.3
20200226045725 41 319 1.0 3.0 0.00 0.01 0.01 91 1013.1
20200226044825 41 328 2.0 4.0 0.00 0.01 0.01 91 1013.1
20200226043925 41 330 1.0 4.0 0.00 0.01 0.01 91 1013.2
20200226043025 41 330 2.0 4.0 0.00 0.01 0.01 91 1013.4
20200226042125 41 325 2.0 3.0 0.00 0.01 0.01 91 1013.4
20200226041226 41 260 0.0 2.0 0.00 0.01 0.01 91 1013.4
20200226040325 42 310 0.0 5.0 0.00 0.01 0.01 91 1013.3
20200226035425 42 332 2.0 4.0 0.00 0.01 0.01 91 1013.4
20200226034525 42 327 2.0 6.0 0.00 0.01 0.01 91 1013.6
20200226033625 42 330 1.0 4.0 0.00 0.01 0.01 91 1013.7
20200226032725 42 313 2.0 7.0 0.00 0.01 0.01 91 1013.8
20200226031825 42 335 2.0 6.0 0.00 0.01 0.01 91 1013.8
20200226030926 42 315 2.0 6.0 0.00 0.01 0.01 92 1013.8
20200226030025 42 320 2.0 6.0 0.00 0.01 0.01 92 1013.8
20200226025125 43 331 3.0 10.0 0.00 0.01 0.01 92 1013.5
20200226024225 43 333 2.0 5.0 0.00 0.01 0.01 92 1013.3
20200226023325 43 338 2.0 4.0 0.00 0.01 0.01 92 1013.1
20200226022425 43 326 1.0 8.0 0.00 0.01 0.01 92 1012.7
20200226021525 44 341 3.0 5.0 0.00 0.01 0.01 92 1012.9
20200226020625 44 318 2.0 4.0 0.00 0.01 0.01 92 1012.9
20200226015726 44 336 2.0 8.0 0.00 0.01 0.01 92 1012.7
20200226014825 44 334 2.0 4.0 0.00 0.01 0.01 91 1012.7
20200226013925 45 319 2.0 8.0 0.00 0.01 0.01 91 1012.6
20200226013025 45 341 2.0 5.0 0.00 0.04 0.01 92 1012.6
20200226012125 45 319 1.0 4.0 0.00 0.07 0.01 92 1012.7
20200226011225 45 326 0.0 7.0 0.00 0.07 0.01 91 1012.4
20200226010325 45 317 2.0 4.0 0.00 0.07 0.01 92 1012.5
20200226005425 45 342 2.0 4.0 0.00 0.08 0.01 92 1012.6
20200226004526 46 317 1.0 4.0 0.00 0.11 0.01 92 1012.4
20200226003625 46 328 0.0 4.0 0.00 0.12 0.01 92 1012.4
20200226002725 46 317 2.0 4.0 0.00 0.13 0.01 92 1012.1
20200226001825 46 331 1.0 3.0 0.00 0.13 0.01 92 1011.9
20200226000927 46 355 0.0 3.0 0.00 0.13 0.01 92 1011.6
20200226000025 46 329 2.0 4.0 0.00 0.13 0.01 92 1011.7
20200225235125 46 329 1.0 3.0 0.00 0.13 0.01 91 1011.4
20200225234225 46 329 2.0 3.0 0.00 0.13 0.01 92 1011.2
20200225233326 47 310 2.0 4.0 0.00 0.13 0.01 92 1011.0
20200225232425 46 320 1.0 3.0 0.00 0.13 0.01 92 1011.0
20200225231525 47 313 2.0 5.0 0.00 0.13 0.01 92 1010.8
20200225230625 47 317 2.0 4.0 0.00 0.13 0.01 93 1010.8
20200225225725 47 313 1.0 5.0 0.00 0.13 0.01 93 1010.5
20200225224825 47 313 2.0 5.0 0.00 0.13 0.01 94 1010.7
20200225223925 47 324 1.0 3.0 0.00 0.13 0.01 94 1010.3
20200225223025 47 321 1.0 2.0 0.00 0.13 0.01 94 1010.4
20200225222125 47 324 0.0 2.0 0.00 0.13 0.01 94 1010.3
20200225221225 47 314 1.0 3.0 0.00 0.13 0.01 94 1010.3
20200225220325 47 316 2.0 4.0 0.00 0.14 0.01 95 1010.4
20200225215425 47 324 2.0 3.0 0.00 0.14 0.01 95 1010.3
20200225214525 47 312 2.0 2.0 0.00 0.14 0.01 95 1010.3
20200225213625 46 326 0.0 3.0 0.00 0.14 0.01 95 1010.2
20200225212725 46 322 1.0 4.0 0.00 0.14 0.01 94 1009.8
20200225211825 47 328 1.0 4.0 0.00 0.14 0.01 94 1009.9
20200225210925 47 314 2.0 4.0 0.00 0.14 0.01 94 1009.9
20200225210025 47 317 2.0 4.0 0.00 0.14 0.01 94 1009.6
20200225204225 47 283 2.0 6.0 0.00 0.14 0.01 94 1009.6
20200225203325 47 305 1.0 4.0 0.00 0.14 0.01 94 1009.4
20200225202425 48 306 2.0 4.0 0.00 0.14 0.01 93 1009.3
20200225201525 48 328 1.0 6.0 0.00 0.14 0.01 93 1009.2
20200225200625 48 304 2.0 6.0 0.00 0.14 0.01 93 1009.0
20200225195725 48 323 1.0 5.0 0.00 0.14 0.01 93 1009.1
20200225194825 48 315 2.0 5.0 0.00 0.14 0.01 94 1009.1
20200225193925 48 317 0.0 4.0 0.00 0.14 0.01 94 1009.1
20200225193025 48 306 1.0 5.0 0.00 0.14 0.01 94 1009.1
20200225192125 49 298 2.0 5.0 0.00 0.14 0.01 94 1009.0
20200225191225 49 314 1.0 4.0 0.00 0.14 0.01 95 1009.0
20200225190325 48 329 0.0 4.0 0.00 0.14 0.01 95 1008.9
20200225185425 48 302 2.0 5.0 0.00 0.14 0.01 95 1009.0
20200225184525 48 341 2.0 5.0 0.00 0.14 0.01 96 1009.0
20200225183625 48 311 0.0 4.0 0.00 0.14 0.01 96 1009.1
20200225182725 48 303 2.0 7.0 0.00 0.14 0.01 96 1009.1
20200225181826 49 309 2.0 4.0 0.00 0.14 0.01 96 1008.9
20200225180925 49 348 1.0 4.0 0.00 0.14 0.01 96 1009.1
20200225180025 49 300 2.0 7.0 0.00 0.14 0.01 97 1009.0